TimeCDT,TemperatureF,Dew PointF,Humidity,Sea Level PressureIn,VisibilityMPH,Wind Direction,Wind SpeedMPH,Gust SpeedMPH,PrecipitationIn,Events,Conditions,WindDirDegrees,DateUTC
12:52 AM,82.0,64.9,56,29.92,10.0,WSW,13.8,-,N/A,,Clear,250,2013-09-11 05:52:00
1:52 AM,81.0,64.9,58,29.94,10.0,West,8.1,-,N/A,,Clear,260,2013-09-11 06:52:00
2:52 AM,79.0,64.9,62,29.95,10.0,NNW,4.6,-,N/A,,Scattered Clouds,330,2013-09-11 07:52:00
3:52 AM,72.0,66.0,81,29.98,10.0,North,9.2,-,N/A,,Partly Cloudy,360,2013-09-11 08:52:00
4:52 AM,71.1,66.9,87,29.98,10.0,NE,5.8,-,N/A,,Clear,40,2013-09-11 09:52:00
5:52 AM,70.0,66.9,90,29.99,10.0,North,3.5,-,N/A,,Scattered Clouds,10,2013-09-11 10:52:00
6:52 AM,70.0,68.0,93,30.02,10.0,Calm,Calm,-,N/A,,Mostly Cloudy,0,2013-09-11 11:52:00
7:52 AM,73.0,68.0,84,30.05,10.0,Calm,Calm,-,N/A,,Mostly Cloudy,0,2013-09-11 12:52:00
8:52 AM,75.9,64.0,67,30.02,10.0,Calm,Calm,-,N/A,,Mostly Cloudy,0,2013-09-11 13:52:00
9:52 AM,75.0,68.0,79,30.01,10.0,South,5.8,-,0.00,,Mostly Cloudy,190,2013-09-11 14:52:00
10:52 AM,77.0,66.0,69,30.01,10.0,South,6.9,-,N/A,,Mostly Cloudy,190,2013-09-11 15:52:00
11:52 AM,79.0,64.0,60,30.02,10.0,WSW,9.2,-,N/A,,Mostly Cloudy,250,2013-09-11 16:52:00
12:52 PM,79.0,64.0,60,30.01,10.0,West,10.4,-,N/A,,Overcast,260,2013-09-11 17:52:00
1:52 PM,75.9,64.9,69,30.01,10.0,WSW,9.2,-,0.01,,Overcast,240,2013-09-11 18:52:00
2:52 PM,78.1,66.0,66,30.00,10.0,West,9.2,-,0.00,,Mostly Cloudy,270,2013-09-11 19:52:00
3:52 PM,81.0,66.0,60,29.98,10.0,West,8.1,-,N/A,,Mostly Cloudy,270,2013-09-11 20:52:00
4:52 PM,82.0,64.0,54,29.97,10.0,West,9.2,-,N/A,,Mostly Cloudy,270,2013-09-11 21:52:00
5:52 PM,81.0,64.0,56,29.97,10.0,West,6.9,-,N/A,,Mostly Cloudy,260,2013-09-11 22:52:00
6:52 PM,80.1,64.9,60,29.96,10.0,West,5.8,-,N/A,,Mostly Cloudy,270,2013-09-11 23:52:00
7:52 PM,78.1,66.0,66,29.96,10.0,WSW,4.6,-,N/A,,Mostly Cloudy,240,2013-09-12 00:52:00
8:52 PM,75.9,66.0,71,29.97,10.0,WSW,4.6,-,N/A,,Mostly Cloudy,250,2013-09-12 01:52:00
9:52 PM,75.0,64.9,71,29.96,10.0,West,5.8,-,N/A,,Mostly Cloudy,270,2013-09-12 02:52:00
10:52 PM,73.0,64.9,76,29.96,10.0,West,3.5,-,N/A,,Scattered Clouds,260,2013-09-12 03:52:00
11:52 PM,72.0,64.0,76,29.95,10.0,West,4.6,-,N/A,,Scattered Clouds,260,2013-09-12 04:52:00